Wind_Speed
36 36 36 36 35 35 34 34 34 35 35 36 37 37 38 38 39 40 41 42 42 43 44 45 46 46 46 48 49 50 50 51 51 49 49 50 51 50 49 49 49 49 48
37 36 36 35 35 35 34 34 34 35 35 36 36 37 38 38 39 40 40 41 43 43 44 45 45 46 47 48 49 49 50 50 51 50 49 49 49 48 47 47 47 47 46
37 37 36 36 35 35 36 36 35 35 36 36 37 37 38 38 39 39 40 41 42 43 44 45 45 46 47 48 48 49 49 50 50 51 49 48 48 47 46 45 45 44 43
37 37 36 36 36 36 36 36 36 36 36 37 37 38 39 39 39 40 40 41 42 43 44 45 46 47 46 46 47 48 49 49 49 49 48 47 46 45 44 43 42 41 41
37 36 36 36 36 36 36 36 36 36 36 37 37 38 38 38 39 39 40 42 42 43 44 46 46 45 45 46 46 47 48 48 47 47 46 45 44 43 43 42 40 39 37
37 36 36 36 36 36 37 37 37 37 37 37 37 37 38 38 39 40 41 42 43 44 45 45 44 44 44 45 46 47 47 46 46 46 45 44 43 42 41 40 39 37 35
37 36 36 37 37 37 36 36 36 37 37 37 37 37 38 39 40 41 42 42 43 44 44 43 42 43 44 44 45 44 44 44 44 44 43 42 42 41 40 38 37 36 34
36 37 37 37 37 37 37 37 37 37 38 38 38 38 39 40 41 42 42 43 44 43 42 42 42 43 43 43 42 42 42 42 41 41 40 40 40 40 39 37 36 33 33
36 36 37 36 36 36 36 37 37 38 38 38 38 39 40 40 41 42 43 43 42 42 42 42 43 43 42 42 42 41 41 39 39 39 39 39 38 38 37 35 33 32 30
35 36 36 36 36 36 36 37 37 38 38 38 39 39 40 40 41 41 42 42 41 41 41 42 42 41 41 41 41 40 39 37 37 37 36 37 37 36 35 34 32 30 28
35 36 36 36 36 36 36 36 37 37 38 38 38 39 39 40 40 41 41 40 40 40 39 39 39 39 39 39 39 38 37 36 35 35 36 36 35 34 33 31 29 27 25
35 35 35 35 35 35 36 36 36 37 37 38 38 38 38 39 39 39 39 38 38 38 38 38 37 37 37 37 36 36 35 34 33 34 34 34 32 31 29 28 26 24 23
34 34 34 34 34 35 35 36 36 37 37 37 37 37 38 38 38 37 37 37 36 36 36 36 35 35 35 34 34 34 33 32 33 32 31 30 29 27 25 24 23 22 20
34 34 33 33 34 34 34 35 35 36 36 36 36 37 37 36 36 36 35 35 35 35 34 33 32 33 33 33 32 32 31 31 31 30 28 27 26 24 23 22 21 20 19
34 34 34 34 33 34 34 34 34 34 34 34 35 35 34 34 34 34 34 33 33 33 32 31 31 32 32 31 31 30 29 29 28 27 26 25 24 23 21 21 19 18 18
34 34 34 34 34 34 34 34 33 33 32 32 32 32 32 32 32 32 32 31 31 30 30 30 31 31 31 29 28 27 28 27 26 25 25 23 22 20 20 19 19 18 17
34 33 33 34 34 33 33 32 32 30 29 29 30 30 30 30 31 30 30 30 29 29 29 29 30 30 28 27 26 25 25 25 24 24 23 21 21 20 19 18 18 17 15
33 33 33 32 32 32 31 30 29 28 28 28 28 28 28 28 28 28 28 27 27 28 28 28 28 27 25 24 24 24 24 24 24 23 22 20 19 18 17 17 17 15 14
31 31 30 30 30 29 29 28 28 28 28 27 26 26 26 26 26 26 26 26 26 27 27 26 25 23 22 22 22 23 23 23 22 22 20 18 17 16 16 16 15 14 13
28 28 28 27 27 27 27 26 26 26 26 26 26 26 26 25 25 25 24 25 26 26 26 24 23 22 22 22 22 22 22 22 21 20 18 17 16 15 15 15 15 13 12
26 26 25 25 25 25 25 25 24 24 24 25 25 25 25 25 24 24 25 25 25 24 24 23 22 21 21 21 21 21 21 21 20 18 17 16 15 14 14 14 13 12 12
24 24 24 24 23 23 23 23 23 24 23 23 24 24 24 24 24 25 24 24 24 24 23 22 21 20 20 20 21 20 20 19 18 17 16 15 14 13 13 12 12 12 11
22 22 22 22 21 22 22 22 22 22 22 23 23 23 23 24 24 24 23 23 22 22 22 21 20 19 19 20 20 20 19 18 17 16 15 14 13 12 11 11 10 10 9
20 20 20 21 21 21 21 21 22 22 23 23 23 23 23 24 23 23 22 22 22 21 20 19 19 18 19 20 20 19 18 17 16 15 14 12 11 10 10 9 9 8 8
19 20 20 20 20 20 20 20 21 22 23 23 22 22 22 22 22 21 21 21 21 20 19 19 19 19 19 19 19 19 18 16 15 14 12 11 10 9 8 8 7 7 6
20 20 20 20 20 20 19 20 21 21 21 21 21 21 21 20 20 20 21 20 20 19 19 18 18 18 19 19 19 18 16 15 13 12 11 10 9 8 8 7 6 6 5
Wind_Direction
251 254 257 259 261 263 264 266 267 269 272 275 277 279 281 282 284 285 287 288 289 291 292 293 294 295 296 297 297 298 299 300 300 301 301 301 301 301 301 300 300 299 297
251 254 256 258 260 262 264 266 269 271 273 276 278 280 282 284 285 286 287 288 291 292 293 294 295 296 297 298 298 298 299 300 301 301 301 302 302 302 302 300 299 299 297
251 254 255 257 259 261 264 267 269 272 274 277 279 281 282 284 285 287 289 291 292 293 294 295 296 297 298 299 298 299 299 300 301 302 302 303 303 303 302 301 300 299 298
251 253 255 257 259 262 265 268 270 273 276 278 280 281 282 284 285 287 290 292 294 295 296 297 298 299 299 299 299 299 300 301 302 303 303 304 304 304 303 301 300 299 298
251 253 255 258 260 262 265 268 271 273 276 278 280 281 282 284 287 289 291 293 294 296 298 300 300 300 300 300 300 301 301 301 302 303 304 305 306 305 304 303 301 300 299
251 253 255 257 260 263 265 268 270 273 276 278 280 282 284 286 288 290 292 294 295 297 299 300 300 300 300 301 301 301 302 302 303 304 305 306 307 307 306 304 302 301 298
252 254 256 257 260 262 265 268 270 273 276 278 280 282 284 287 289 291 292 294 296 297 299 300 300 301 301 302 302 302 302 302 303 304 306 307 308 308 307 305 303 302 299
252 254 256 258 260 263 265 268 270 273 276 278 280 282 284 287 289 291 292 294 297 298 298 299 300 302 302 302 302 302 302 303 303 304 306 307 308 308 308 307 306 303 301
252 254 256 258 261 264 265 268 270 273 276 278 280 282 284 286 289 291 293 295 296 297 299 299 301 302 302 301 302 302 302 302 303 304 307 308 309 309 308 308 307 305 301
252 254 256 259 262 264 266 268 271 274 276 278 279 282 284 286 289 291 293 295 296 297 299 300 301 301 301 301 302 302 302 302 304 305 307 309 310 310 309 309 308 305 302
252 254 257 259 263 266 267 270 273 275 277 278 280 283 285 287 289 292 294 295 297 298 299 300 301 301 301 301 302 303 303 303 304 306 308 309 309 310 309 308 307 306 304
254 256 259 261 263 267 269 272 275 277 279 279 281 283 285 287 290 292 294 295 297 298 299 300 301 302 303 303 303 304 304 304 306 308 309 310 310 309 308 308 307 306 306
256 257 260 263 266 268 271 273 276 278 279 280 281 283 285 288 291 292 294 295 297 298 299 300 302 303 304 304 304 305 305 306 308 309 310 310 311 311 311 310 309 307 306
256 258 260 263 266 269 272 275 277 279 279 281 282 284 286 288 290 292 294 295 297 299 300 301 303 304 305 305 305 306 307 308 309 310 311 311 311 313 313 312 311 308 307
256 259 261 264 267 270 272 275 278 279 280 281 282 283 285 287 289 292 293 295 297 299 301 302 304 305 305 306 307 307 308 310 311 311 312 312 312 312 312 311 311 308 306
257 260 263 266 268 270 272 274 276 279 280 281 283 285 286 287 289 292 294 296 297 299 301 302 304 305 306 306 306 306 308 310 311 312 313 312 312 311 310 310 309 305 304
260 262 265 267 268 270 272 274 276 277 278 280 283 286 287 288 290 293 295 295 296 299 302 303 304 306 306 306 307 309 310 311 312 313 314 312 312 311 309 309 307 304 304
261 263 265 267 268 269 271 272 273 274 275 279 283 286 287 289 292 294 295 296 298 300 302 303 305 305 305 307 308 310 311 311 312 313 313 312 311 311 310 311 311 309 307
261 263 264 265 266 267 269 271 272 274 276 279 283 286 288 291 293 295 295 297 299 301 303 304 303 303 305 307 308 309 310 311 312 314 313 313 312 312 313 314 315 313 309
259 260 261 262 264 266 269 270 271 274 277 280 283 286 288 291 292 293 294 297 299 301 302 302 302 303 305 307 308 310 311 312 313 314 312 312 312 312 313 315 315 315 312
256 257 259 261 264 266 267 268 270 273 277 280 284 287 289 289 291 292 294 297 299 300 301 300 301 303 306 307 309 310 312 313 314 313 311 311 311 312 313 314 314 315 314
254 256 259 262 264 265 266 268 271 274 277 281 284 286 288 289 291 293 295 297 298 299 301 301 302 303 305 307 309 311 313 314 314 313 310 308 308 310 313 314 315 315 313
255 257 259 260 263 265 267 269 271 274 277 281 284 286 287 289 291 293 295 296 297 299 300 302 303 303 305 308 309 310 311 312 312 310 307 305 305 307 309 310 314 316 313
254 256 258 261 263 265 269 271 273 275 279 282 285 286 287 290 291 291 294 296 297 299 301 302 303 302 304 306 308 309 310 310 308 307 304 302 302 302 303 305 309 314 315
254 257 260 261 263 266 268 271 274 277 280 282 284 286 288 289 290 292 295 296 297 298 300 301 302 302 302 305 308 309 308 308 305 301 299 298 297 296 297 299 303 309 314
255 258 260 261 263 264 266 270 274 277 279 280 282 284 286 288 291 294 296 297 297 297 298 299 300 301 302 305 307 308 307 306 303 299 294 291 290 288 289 292 298 305 310
Height
5672 5673 5675 5676 5677 5677 5678 5678 5678 5677 5677 5676 5675 5674 5673 5671 5669 5668 5665 5662 5659 5656 5652 5649 5646 5643 5639 5635 5631 5626 5621 5615 5611 5610 5606 5600 5593 5587 5582 5575 5569 5563 5558
5663 5665 5666 5667 5668 5669 5669 5669 5669 5669 5668 5667 5666 5665 5663 5662 5660 5658 5655 5652 5649 5646 5642 5639 5636 5632 5628 5624 5620 5615 5610 5604 5599 5595 5593 5588 5581 5575 5569 5564 5558 5552 5547
5654 5656 5657 5658 5659 5660 5660 5661 5661 5660 5660 5658 5657 5656 5654 5652 5650 5648 5645 5642 5639 5636 5632 5629 5625 5621 5617 5613 5608 5604 5599 5594 5588 5582 5579 5575 5569 5563 5558 5553 5547 5542 5536
5645 5647 5648 5649 5650 5651 5651 5652 5652 5651 5651 5650 5648 5647 5645 5643 5641 5638 5636 5633 5630 5626 5622 5618 5614 5609 5605 5601 5597 5593 5588 5583 5578 5572 5567 5563 5558 5552 5546 5541 5537 5532 5527
5636 5638 5639 5640 5641 5642 5642 5643 5643 5642 5641 5640 5639 5637 5635 5633 5631 5629 5627 5624 5620 5616 5612 5607 5603 5599 5594 5590 5586 5581 5576 5572 5566 5561 5556 5551 5546 5541 5536 5531 5526 5522 5518
5627 5628 5630 5631 5632 5633 5633 5633 5633 5633 5632 5631 5629 5628 5626 5624 5622 5619 5617 5614 5610 5606 5602 5597 5593 5589 5584 5579 5575 5570 5565 5560 5555 5550 5546 5540 5535 5530 5525 5520 5516 5512 5509
5617 5619 5621 5622 5623 5624 5624 5624 5624 5623 5622 5621 5620 5618 5617 5614 5612 5610 5607 5604 5600 5596 5592 5588 5584 5579 5574 5570 5565 5560 5555 5549 5545 5540 5535 5530 5525 5521 5516 5512 5507 5503 5499
5608 5610 5611 5613 5614 5614 5615 5615 5614 5614 5613 5612 5611 5609 5607 5605 5603 5600 5597 5594 5590 5586 5582 5578 5574 5569 5564 5560 5556 5551 5546 5541 5537 5532 5527 5522 5516 5511 5506 5502 5498 5495 5491
5599 5601 5602 5603 5604 5605 5605 5605 5605 5604 5604 5603 5601 5600 5598 5595 5593 5590 5587 5584 5580 5576 5573 5568 5564 5559 5555 5550 5546 5542 5538 5533 5528 5523 5519 5513 5508 5503 5498 5494 5490 5487 5484
5590 5591 5593 5594 5595 5595 5596 5596 5595 5595 5594 5593 5591 5590 5588 5586 5583 5580 5577 5574 5571 5567 5563 5558 5554 5549 5545 5540 5536 5533 5529 5525 5521 5516 5512 5506 5501 5496 5491 5487 5483 5480 5477
5580 5582 5583 5584 5585 5586 5586 5586 5586 5585 5584 5583 5582 5580 5578 5576 5573 5570 5567 5564 5560 5557 5553 5549 5545 5540 5536 5531 5527 5524 5520 5516 5512 5508 5504 5499 5494 5490 5485 5481 5477 5473 5471
5572 5573 5574 5575 5576 5576 5577 5576 5576 5575 5575 5573 5572 5570 5568 5566 5563 5560 5557 5554 5550 5547 5544 5540 5536 5531 5527 5523 5519 5516 5512 5508 5505 5501 5497 5492 5488 5484 5479 5475 5472 5468 5466
5563 5564 5565 5566 5567 5567 5567 5567 5567 5566 5565 5564 5562 5561 5559 5557 5554 5551 5548 5545 5542 5538 5535 5531 5527 5523 5520 5516 5512 5508 5505 5501 5498 5494 5490 5486 5482 5478 5474 5471 5467 5464 5462
5554 5555 5556 5557 5557 5558 5558 5557 5557 5556 5555 5554 5553 5551 5549 5548 5545 5543 5540 5537 5534 5531 5527 5524 5520 5516 5512 5509 5505 5501 5498 5494 5491 5487 5483 5480 5476 5473 5470 5466 5463 5461 5458
5544 5546 5547 5547 5548 5548 5548 5548 5547 5546 5545 5544 5543 5542 5540 5539 5537 5534 5531 5529 5526 5523 5520 5517 5513 5510 5506 5502 5498 5495 5492 5488 5485 5481 5478 5475 5472 5469 5466 5462 5460 5457 5455
5535 5537 5538 5538 5538 5539 5539 5538 5537 5537 5536 5535 5534 5533 5531 5530 5528 5526 5523 5520 5518 5515 5512 5510 5506 5503 5499 5496 5492 5489 5486 5483 5480 5476 5473 5470 5467 5464 5462 5459 5456 5454 5452
5526 5527 5528 5529 5529 5529 5529 5529 5529 5529 5528 5527 5526 5524 5523 5522 5520 5518 5515 5513 5510 5508 5505 5502 5499 5496 5492 5489 5487 5484 5481 5478 5474 5471 5469 5466 5463 5460 5458 5455 5452 5450 5448
5517 5518 5518 5519 5520 5520 5520 5521 5521 5521 5521 5520 5519 5517 5516 5514 5512 5510 5508 5506 5504 5501 5498 5495 5492 5489 5486 5484 5481 5479 5476 5473 5470 5467 5464 5462 5459 5457 5454 5452 5449 5447 5445
5508 5508 5509 5510 5511 5511 5512 5512 5513 5513 5513 5512 5511 5510 5509 5508 5506 5503 5501 5500 5498 5495 5492 5489 5486 5484 5481 5479 5476 5474 5471 5468 5465 5463 5460 5458 5455 5453 5451 5449 5447 5445 5443
5499 5500 5501 5502 5503 5503 5504 5505 5505 5505 5505 5505 5504 5503 5502 5501 5499 5498 5496 5493 5491 5489 5486 5483 5481 5479 5476 5474 5471 5469 5466 5464 5461 5458 5456 5454 5452 5450 5448 5446 5444 5442 5441
5492 5493 5494 5495 5496 5497 5497 5498 5498 5498 5498 5498 5497 5496 5495 5494 5493 5492 5490 5487 5485 5483 5480 5478 5476 5473 5471 5469 5466 5464 5462 5459 5457 5455 5453 5450 5449 5447 5445 5444 5442 5440 5438
5485 5486 5488 5488 5489 5490 5490 5491 5492 5492 5492 5491 5491 5490 5489 5488 5487 5485 5483 5481 5479 5477 5474 5472 5470 5468 5466 5464 5462 5460 5457 5455 5453 5451 5449 5447 5446 5444 5443 5441 5439 5438 5436
5479 5480 5481 5482 5483 5484 5484 5485 5485 5485 5486 5485 5485 5484 5483 5482 5480 5479 5477 5475 5473 5471 5469 5467 5465 5463 5461 5459 5457 5455 5453 5451 5449 5447 5446 5444 5443 5441 5440 5439 5437 5436 5434
5474 5475 5476 5477 5477 5478 5478 5479 5479 5479 5479 5479 5478 5478 5477 5476 5474 5473 5471 5469 5467 5466 5464 5462 5460 5458 5457 5455 5452 5450 5448 5447 5445 5443 5442 5441 5440 5438 5437 5436 5435 5434 5433
5468 5469 5470 5471 5471 5472 5472 5473 5473 5473 5473 5473 5472 5472 5471 5469 5468 5467 5465 5463 5462 5460 5459 5457 5455 5453 5452 5450 5448 5446 5444 5442 5441 5439 5438 5437 5436 5436 5435 5434 5433 5432 5431
5463 5464 5464 5465 5466 5466 5467 5467 5467 5467 5467 5467 5466 5465 5465 5464 5462 5461 5459 5458 5456 5455 5453 5452 5450 5448 5447 5445 5443 5441 5439 5438 5436 5435 5434 5434 5433 5433 5432 5432 5431 5430 5430